TimeEDT,TemperatureF,Dew PointF,Humidity,Sea Level PressureIn,VisibilityMPH,Wind Direction,Wind SpeedMPH,Gust SpeedMPH,PrecipitationIn,Events,Conditions,WindDirDegrees,DateUTC
12:15 AM,55.0,34.2,45,29.95,10.0,SSW,19.6,31.1,N/A,,Overcast,200,2012-10-09 04:15:00
12:35 AM,54.5,34.0,46,29.94,10.0,SSW,15.0,32.2,N/A,,Overcast,210,2012-10-09 04:35:00
12:55 AM,54.0,34.7,48,29.93,10.0,SSW,23.0,29.9,N/A,,Mostly Cloudy,210,2012-10-09 04:55:00
1:15 AM,53.4,34.2,48,29.92,10.0,SSW,21.9,34.5,N/A,,Mostly Cloudy,210,2012-10-09 05:15:00
1:35 AM,54.0,34.5,48,29.91,10.0,SSW,26.5,34.5,N/A,,Mostly Cloudy,210,2012-10-09 05:35:00
1:55 AM,53.1,34.2,49,29.92,10.0,SSW,20.7,31.1,N/A,,Overcast,210,2012-10-09 05:55:00
2:15 AM,53.1,34.7,50,29.91,10.0,SSW,20.7,34.5,N/A,,Overcast,210,2012-10-09 06:15:00
2:55 AM,53.6,35.2,50,29.91,10.0,SW,19.6,33.4,N/A,,Overcast,220,2012-10-09 06:55:00
3:16 AM,53.1,35.2,51,29.91,10.0,SSW,20.7,33.4,N/A,,Overcast,210,2012-10-09 07:16:00
3:55 AM,53.1,35.8,52,29.89,10.0,SSW,20.7,28.8,N/A,,Overcast,210,2012-10-09 07:55:00
4:15 AM,53.1,36.1,53,29.89,10.0,SSW,20.7,31.1,N/A,,Overcast,210,2012-10-09 08:15:00
4:35 AM,53.1,36.1,53,29.88,10.0,SSW,20.7,31.1,N/A,,Overcast,200,2012-10-09 08:35:00
4:55 AM,53.1,37.0,55,29.88,10.0,SSW,19.6,33.4,N/A,,Overcast,210,2012-10-09 08:55:00
5:15 AM,53.1,37.6,56,29.88,10.0,SSW,17.3,27.6,N/A,,Overcast,210,2012-10-09 09:15:00
5:35 AM,53.1,38.3,57,29.88,10.0,SSW,19.6,29.9,N/A,,Overcast,210,2012-10-09 09:35:00
5:55 AM,53.1,38.5,58,29.88,10.0,SSW,18.4,27.6,N/A,,Mostly Cloudy,210,2012-10-09 09:55:00
6:15 AM,53.1,39.0,59,29.88,10.0,SSW,21.9,26.5,N/A,,Scattered Clouds,210,2012-10-09 10:15:00
6:35 AM,53.1,38.8,59,29.87,10.0,SSW,18.4,26.5,N/A,,Scattered Clouds,210,2012-10-09 10:35:00
6:55 AM,53.1,39.6,60,29.87,10.0,SSW,21.9,29.9,N/A,,Clear,210,2012-10-09 10:55:00
7:15 AM,53.1,39.2,59,29.87,10.0,SSW,18.4,33.4,N/A,,Scattered Clouds,210,2012-10-09 11:15:00
7:35 AM,53.1,39.7,61,29.88,10.0,SSW,17.3,23.0,N/A,,Mostly Cloudy,210,2012-10-09 11:35:00
7:55 AM,53.1,39.7,61,29.87,10.0,SSW,18.4,26.5,N/A,,Overcast,210,2012-10-09 11:55:00
8:15 AM,53.1,39.4,60,29.87,10.0,SSW,21.9,27.6,N/A,Rain,Light Rain,210,2012-10-09 12:15:00
8:35 AM,53.1,40.1,61,29.87,10.0,SW,19.6,27.6,N/A,Rain,Light Rain,220,2012-10-09 12:35:00
8:55 AM,53.1,39.7,61,29.86,10.0,SSW,17.3,26.5,N/A,,Light Drizzle,210,2012-10-09 12:55:00
9:15 AM,53.1,40.3,62,29.86,10.0,SW,21.9,29.9,N/A,Rain,Light Rain,220,2012-10-09 13:15:00
9:35 AM,53.1,39.0,59,29.86,10.0,SW,17.3,31.1,N/A,,Scattered Clouds,220,2012-10-09 13:35:00
9:55 AM,54.1,40.1,59,29.86,10.0,SSW,21.9,28.8,N/A,,Mostly Cloudy,210,2012-10-09 13:55:00
10:15 AM,55.2,41.0,59,29.86,10.0,SW,23.0,29.9,N/A,,Scattered Clouds,230,2012-10-09 14:15:00
10:35 AM,55.6,41.0,58,29.85,10.0,SSW,20.7,29.9,N/A,,Scattered Clouds,210,2012-10-09 14:35:00
10:55 AM,55.6,41.4,59,29.85,10.0,SW,20.7,28.8,N/A,,Mostly Cloudy,220,2012-10-09 14:55:00
11:15 AM,54.5,40.5,59,29.84,10.0,SW,21.9,27.6,N/A,,Overcast,220,2012-10-09 15:15:00
11:35 AM,54.5,40.5,59,29.83,10.0,SSW,15.0,27.6,N/A,,Mostly Cloudy,210,2012-10-09 15:35:00
11:55 AM,55.6,41.2,58,29.83,10.0,SW,17.3,21.9,N/A,,Scattered Clouds,220,2012-10-09 15:55:00
12:15 PM,55.6,41.2,58,29.83,10.0,SW,19.6,31.1,N/A,,Scattered Clouds,220,2012-10-09 16:15:00
12:35 PM,58.1,43.2,58,29.83,10.0,SW,19.6,28.8,N/A,,Mostly Cloudy,220,2012-10-09 16:35:00
12:55 PM,57.2,42.8,59,29.82,10.0,SSW,19.6,28.8,N/A,,Mostly Cloudy,210,2012-10-09 16:55:00
1:15 PM,55.6,43.0,63,29.82,10.0,SW,20.7,32.2,N/A,,Mostly Cloudy,220,2012-10-09 17:15:00
1:35 PM,55.6,43.9,65,29.82,10.0,SW,18.4,31.1,N/A,,Overcast,220,2012-10-09 17:35:00
1:55 PM,54.5,43.2,66,29.79,10.0,SSW,23.0,28.8,N/A,,Overcast,210,2012-10-09 17:55:00
2:15 PM,54.9,43.5,66,29.79,10.0,SSW,24.2,31.1,N/A,,Overcast,210,2012-10-09 18:15:00
2:36 PM,53.4,43.2,68,29.79,10.0,SSW,23.0,32.2,N/A,,Overcast,210,2012-10-09 18:36:00
2:55 PM,55.2,44.1,66,29.79,10.0,SW,19.6,31.1,N/A,,Overcast,220,2012-10-09 18:55:00
3:15 PM,55.6,44.6,67,29.78,10.0,SW,20.7,29.9,N/A,,Overcast,220,2012-10-09 19:15:00
3:36 PM,55.6,43.5,64,29.77,10.0,SSW,20.7,33.4,N/A,,Overcast,210,2012-10-09 19:36:00
3:55 PM,55.6,43.2,63,29.76,10.0,SSW,20.7,31.1,N/A,,Overcast,210,2012-10-09 19:55:00
4:15 PM,55.6,42.8,62,29.75,10.0,SSW,21.9,32.2,N/A,,Overcast,210,2012-10-09 20:15:00
4:35 PM,55.9,43.2,62,29.74,10.0,SW,25.3,34.5,N/A,,Overcast,220,2012-10-09 20:35:00
4:55 PM,57.6,45.1,63,29.74,10.0,SSW,19.6,27.6,N/A,,Overcast,210,2012-10-09 20:55:00
5:15 PM,58.1,45.9,64,29.74,10.0,SSW,20.7,27.6,N/A,,Scattered Clouds,200,2012-10-09 21:15:00
5:35 PM,58.1,45.5,63,29.74,10.0,SSW,19.6,27.6,N/A,,Scattered Clouds,200,2012-10-09 21:35:00
5:55 PM,58.1,45.9,64,29.74,10.0,SSW,20.7,29.9,N/A,,Mostly Cloudy,210,2012-10-09 21:55:00
6:15 PM,58.1,45.3,62,29.74,10.0,SSW,16.1,31.1,N/A,,Overcast,210,2012-10-09 22:15:00
6:35 PM,58.1,45.9,64,29.74,10.0,SW,24.2,32.2,N/A,,Overcast,220,2012-10-09 22:35:00
6:55 PM,55.8,44.1,65,29.76,10.0,WNW,15.0,26.5,N/A,,Overcast,300,2012-10-09 22:55:00
7:15 PM,50.5,42.8,75,29.78,10.0,WNW,10.4,19.6,N/A,,Light Drizzle,290,2012-10-09 23:15:00
7:35 PM,50.5,42.4,74,29.79,10.0,West,8.1,17.3,N/A,,Overcast,280,2012-10-09 23:35:00
7:55 PM,48.6,41.4,76,29.79,10.0,WNW,12.7,20.7,N/A,Rain,Rain,290,2012-10-09 23:55:00
8:15 PM,46.9,41.0,80,29.81,10.0,WNW,16.1,27.6,N/A,,Drizzle,300,2012-10-10 00:15:00
8:35 PM,45.5,40.3,82,29.81,10.0,NW,16.1,21.9,N/A,Rain,Rain,310,2012-10-10 00:35:00
8:55 PM,45.3,41.4,86,29.82,7.0,NW,9.2,18.4,0.03,Rain,Rain,320,2012-10-10 00:55:00
9:15 PM,43.7,39.9,87,29.82,7.0,NW,6.9,-,0.03,Rain,Rain,310,2012-10-10 01:15:00
9:35 PM,42.8,39.2,87,29.82,7.0,NW,6.9,-,0.08,Rain,Rain,320,2012-10-10 01:35:00
9:55 PM,41.5,37.6,86,29.82,7.0,WNW,6.9,17.3,0.11,Rain,Rain,300,2012-10-10 01:55:00
10:15 PM,40.6,36.0,83,29.82,10.0,NW,5.8,-,0.01,Rain,Rain,310,2012-10-10 02:15:00
10:35 PM,40.5,36.0,84,29.82,7.0,NW,4.6,-,0.04,Rain,Rain,310,2012-10-10 02:35:00
10:55 PM,40.5,34.7,80,29.83,5.0,NW,9.2,-,0.06,Rain,Rain,320,2012-10-10 02:55:00
11:15 PM,40.3,35.6,83,29.83,7.0,NW,3.5,-,0.02,Rain,Rain,310,2012-10-10 03:15:00
11:35 PM,39.6,34.9,83,29.83,5.0,Calm,Calm,-,0.06,Rain,Rain,0,2012-10-10 03:35:00
11:55 PM,39.2,34.5,83,29.82,7.0,Calm,Calm,-,0.09,Rain,Rain,0,2012-10-10 03:55:00